Погода METAR - Абакан

Кемерово, Абакан, Красноярск, Новосибирск
Код METAR: UNAA 232300Z 28002MPS 9999 SCT014 M01/M01 Q1021 R20/CLRD65 NOSIG RMK QFE743

Погода - Сейчас

Время: 2021-09-24 06:00, местное
Направление ветра: Запад (280°)
Скорость ветра: 2 м/с
Видимость:
Температура: -1°C
Точка росы: -1°C
Атмосферное давление: 1021 гПа

Архив погоды

Время, местное Направление Скорость, м/с Температура, °C Точка росы, °C Давление, гПа
2021-09-24 06:00 З (280°) 2 -1 -1 1021
2021-09-23 12:30 ЮЮЗ (200°) 3 9 0 1019
2021-09-23 05:30 Ю (190°) 2 5 1 1019
2021-09-21 22:00 ЮЮЗ (200°) 5 5 0 1016
2021-09-21 19:00 ЮЗ (230°) 6 8 -1 1015
2021-09-21 14:30 ЮЮЗ (200°) 8 11 0 1013
2021-09-20 17:30 ЮЗ (230°) 7 11 0 1013
2021-09-19 11:00 Переменный 1 15 10 1010
2021-09-19 01:30 СЗ (310°) 1 7 6 1009
2021-09-18 08:00 ЮЗ (210°) 2 9 5 1004
2021-09-18 05:00 Ю (190°) 2 5 4 1004
2021-09-17 14:30 ЗЮЗ (240°) 2 24 3 1008
2021-09-16 17:30 ССЗ (330°) 3 22 6 1010
2021-09-15 23:30 ЗЮЗ (250°) 1 12 7 1015
2021-09-15 11:30 ЮЗ (220°) 5 10 8 1019
2021-09-12 16:00 СЗ (320°) 1 21 7 1004
2021-09-12 13:00 ЗЮЗ (250°) 3 19 7 1005
2021-09-11 17:00 ЗЮЗ (260°) 4 19 2 1011
2021-09-11 16:30 ЗЮЗ (240°) 5 19 3 1011
2021-09-09 20:00 ЮЗ (230°) 4 11 1 1015
2021-09-08 11:00 Переменный 1 18 6 1012
2021-09-07 20:30 С (360°) 3 17 9 1014
2021-09-06 14:30 СЗ (310°) 2 22 9 1014
2021-09-06 12:30 ЮЗ (210°) 2 19 9 1015
2021-09-05 23:30 Штиль 0 7 5 1017
2021-09-05 06:00 Штиль 0 5 4 1022
2021-09-03 11:30 ССВ (20°) 4 17 2 1023
2021-09-02 22:30 СВ (40°) 1 14 7 1022
2021-08-31 15:30 ЮЗ (220°) 3 23 12 1010
2021-08-29 15:30 СЗ (310°) 3 27 12 1007
2021-08-28 21:00 Ю (190°) 1 18 12 1006
2021-08-27 18:30 СЗ (300°) 3 26 7 1009
2021-08-25 10:30 СВ (40°) 3 19 9 1022
2021-08-24 13:00 ССЗ (340°) 4 21 10 1021
2021-08-23 12:30 Переменный 1 18 9 1023
2021-08-23 03:00 ЮЗ (220°) 1 8 7 1025
2021-08-23 00:30 ЗСЗ (290°) 1 8 7 1025
2021-08-20 19:30 ЮЗ (230°) 2 14 13 1013
2021-08-19 06:00 ЮЗ (210°) 2 13 10 1011
2021-08-19 03:00 Ю (180°) 1 14 11 1011
2021-08-18 11:30 СВ (30°) 2 23 12 1013
2021-08-18 01:30 СЗ (310°) 2 15 12 1014
2021-08-17 08:00 Штиль 0 16 12 1016
2021-08-16 07:00 ЗСЗ (290°) 1 14 13 1018
2021-08-12 07:00 Ю (190°) 1 17 14 1011
2021-08-11 13:30 ЮЮВ (150°) 2 26 17 1006
2021-08-09 22:00 СЗ (320°) 1 19 16 1007
2021-08-09 16:00 СЗ (310°) 1 27 16 1007